Home > Time Zones > World Clock > Weather > Italy > Bari > Past weeks

Flag Weather past 2 weeks in Bari, Italy

Now
46 °F

Passing clouds.


Feels Like: 44 °F
Forecast: 50 / 62 °F
Wind: 6 mph from West

Location: Bari / Palese Macchie

Current Time: Nov 22, 2014 at 3:15:06 AM

Latest Report: Nov 22, 2014 at 2:50 AM


Visibility: N/A

Pressure: 30.21 "Hg

Humidity: 93%

Dew point: 45 °F

Location of BariLocation

Historic Weather in Bari — Graph

°F

Bari temperature yesterday

Maximum temperature yesterday: 61 °F (at 12:20 PM)
Minimum temperature yesterday: 46 °F (at 8:50 PM)
Average temperature yesterday: 53 °F

Past Weeks' High & Low Weather Summary

 TemperatureHumidityPressure
High70 °F (Nov 7, 5:50 AM)100% (Nov 8, 5:50 PM)30.24 "Hg (Nov 8, 5:50 PM)
Low46 °F (Nov 21, 8:50 PM)43% (Nov 16, 1:20 PM)29.65 "Hg (Nov 12, 1:20 PM)
Average60 °F82%29.93 "Hg
* Reported Nov 7 1:20 AM — Nov 22 1:50 AM, Bari, Weather by CustomWeather, © 2014

Note: Actual official high and low records may vary slightly from our data, if they occured in-between our weather recording intervals... More about our weather records

Advertising

Bari weather history for previous 24 hours

 ConditionsComfort  
Time TempWeatherWind HumidityBarometerVisibility
1:50 AM
Nov 22
46 °FPassing clouds.5 mph93%30.21 "HgN/A
1:20 AM46 °FPassing clouds.6 mph93%30.21 "HgN/A
12:50 AM46 °FPassing clouds.5 mph100%30.21 "HgN/A
12:20 AM46 °FPassing clouds.6 mph100%30.21 "HgN/A
11:50 PM
Nov 21
46 °FPassing clouds.6 mph100%30.21 "HgN/A
11:20 PM46 °FPassing clouds.8 mph100%30.21 "HgN/A
10:20 PM46 °FPassing clouds.6 mph100%30.21 "HgN/A
9:50 PM46 °FPassing clouds.7 mph100%30.21 "HgN/A
9:20 PM46 °FPassing clouds.7 mph100%30.21 "HgN/A
8:50 PM46 °FPassing clouds.6 mph100%30.21 "HgN/A
8:20 PM48 °FPassing clouds.6 mph94%30.21 "HgN/A
7:50 PM48 °FPassing clouds.6 mph94%30.21 "HgN/A
7:20 PM48 °FPassing clouds.3 mph94%30.21 "HgN/A
6:50 PM50 °FPassing clouds.1 mph94%30.18 "HgN/A
6:20 PM52 °FPassing clouds.3 mph88%30.18 "HgN/A
5:50 PM52 °FPassing clouds.1 mph88%30.18 "HgN/A
5:20 PM54 °FPassing clouds.2 mph82%30.18 "HgN/A
4:50 PM55 °FPassing clouds.3 mph77%30.18 "HgN/A
4:20 PM59 °FPassing clouds.6 mph72%30.18 "HgN/A
3:50 PM59 °FPassing clouds.7 mph72%30.18 "HgN/A
3:20 PM59 °FPassing clouds.8 mph72%30.18 "HgN/A
2:50 PM59 °FPassing clouds.8 mph68%30.18 "HgN/A
2:20 PM59 °FPassing clouds.9 mph68%30.18 "HgN/A
1:50 PM61 °FPassing clouds.9 mph63%30.18 "HgN/A
1:20 PM61 °FPassing clouds.9 mph63%30.18 "HgN/A
12:50 PM59 °FPassing clouds.9 mph68%30.18 "HgN/A
12:20 PM61 °FPassing clouds.10 mph63%30.21 "HgN/A
11:50 AM59 °FPassing clouds.12 mph68%30.21 "HgN/A
11:20 AM59 °FPassing clouds.12 mph63%30.21 "HgN/A
10:50 AM59 °FPassing clouds.10 mph63%30.21 "HgN/A
10:20 AM59 °FPassing clouds.8 mph63%30.21 "HgN/A
9:50 AM59 °FPassing clouds.7 mph63%30.21 "HgN/A
9:20 AM57 °FPassing clouds.7 mph63%30.21 "HgN/A
8:50 AM55 °FPassing clouds.8 mph72%30.21 "HgN/A
8:20 AM52 °FPassing clouds.8 mph82%30.21 "HgN/A
7:50 AM50 °FPassing clouds.7 mph82%30.21 "HgN/A
7:20 AM48 °FPassing clouds.7 mph87%30.21 "HgN/A
6:50 AM48 °FPassing clouds.8 mph87%30.21 "HgN/A
6:20 AM48 °FClear.9 mph87%30.21 "Hg10 mi
5:50 AM48 °FClear.9 mph87%30.21 "Hg10 mi
5:20 AM48 °FClear.9 mph87%30.21 "Hg10 mi
3:50 AM48 °FClear.9 mph87%30.21 "Hg10 mi
3:20 AM48 °FClear.9 mph87%30.21 "Hg10 mi
Weather by CustomWeather, © 2014

See weather overviewHow to use our weather pages